�������l�o���
Date,Time,MP-1(��Sv/h),MP-2(��Sv/h),MP-3(��Sv/h),MP-4(��Sv/h),MP-5(��Sv/h),MP-6(��Sv/h),MP-7(��Sv/h),MP-8(��Sv/h),����,����(m/s),���J
2019/10/12,00:00,0.701,0.985,0.685,1.219,0.886,0.406,0.707,0.671,�k�k��,4.9,�L
2019/10/12,00:10,0.700,0.982,0.686,1.220,0.885,0.406,0.708,0.670,�k�k��,5.0,�L
2019/10/12,00:20,0.702,0.980,0.687,1.218,0.886,0.406,0.709,0.670,�k�k��,5.0,�L
2019/10/12,00:30,0.703,0.984,0.686,1.218,0.885,0.408,0.708,0.672,�k�k��,5.2,�L
2019/10/12,00:40,0.699,0.980,0.683,1.214,0.881,0.405,0.705,0.667,�k,4.0,�L
2019/10/12,00:50,0.691,0.965,0.677,1.197,0.866,0.402,0.701,0.664,�k�k��,5.5,�L
2019/10/12,01:00,0.694,0.968,0.676,1.201,0.869,0.401,0.702,0.666,�k�k��,4.9,�L
2019/10/12,01:10,0.694,0.968,0.677,1.204,0.870,0.403,0.702,0.668,�k�k��,4.5,�L
2019/10/12,01:20,0.692,0.965,0.675,1.200,0.868,0.402,0.703,0.668,�k�k��,5.2,�L
2019/10/12,01:30,0.692,0.965,0.676,1.198,0.868,0.404,0.702,0.665,�k��,7.2,�L
2019/10/12,01:40,0.692,0.962,0.676,1.198,0.868,0.401,0.702,0.666,�k��,5.2,�L
2019/10/12,01:50,0.694,0.961,0.676,1.199,0.865,0.403,0.703,0.666,�k��,5.8,�L
2019/10/12,02:00,0.696,0.967,0.678,1.203,0.868,0.402,0.704,0.666,�k��,6.7,�L
2019/10/12,02:10,0.696,0.969,0.678,1.205,0.868,0.404,0.704,0.667,�k��,6.6,�L
2019/10/12,02:20,0.699,0.972,0.677,1.207,0.871,0.405,0.706,0.667,�k�k��,6.3,��
2019/10/12,02:30,0.699,0.976,0.680,1.208,0.871,0.404,0.706,0.669,�k�k��,7.1,��
2019/10/12,02:40,0.701,0.974,0.680,1.211,0.873,0.405,0.706,0.670,�k�k��,6.9,�L
2019/10/12,02:50,0.699,0.976,0.678,1.209,0.871,0.405,0.705,0.666,�k�k��,7.4,�L
2019/10/12,03:00,0.697,0.971,0.678,1.209,0.867,0.403,0.702,0.666,�k�k��,5.7,�L
2019/10/12,03:10,0.698,0.972,0.678,1.207,0.868,0.405,0.703,0.666,�k�k��,4.9,�L
2019/10/12,03:20,0.697,0.971,0.681,1.210,0.870,0.405,0.704,0.667,�k�k��,5.6,�L
2019/10/12,03:30,0.697,0.975,0.680,1.211,0.870,0.403,0.703,0.669,�k�k��,5.5,�L
2019/10/12,03:40,0.698,0.972,0.679,1.206,0.869,0.405,0.704,0.668,�k�k��,6.3,�L
2019/10/12,03:50,0.697,0.972,0.678,1.204,0.866,0.403,0.702,0.666,�k�k��,4.6,�L
2019/10/12,04:00,0.698,0.971,0.677,1.207,0.869,0.405,0.705,0.667,�k�k��,5.2,�L
2019/10/12,04:10,0.697,0.974,0.679,1.210,0.870,0.404,0.704,0.669,�k�k��,6.0,�L
2019/10/12,04:20,0.698,0.976,0.679,1.211,0.870,0.405,0.707,0.669,�k�k��,5.7,�L
2019/10/12,04:30,0.699,0.974,0.679,1.212,0.872,0.405,0.705,0.669,�k�k��,6.3,�L
2019/10/12,04:40,0.700,0.973,0.676,1.206,0.868,0.405,0.705,0.668,�k�k��,6.3,�L
2019/10/12,04:50,0.700,0.975,0.678,1.208,0.867,0.402,0.703,0.667,�k�k��,5.7,�L
2019/10/12,05:00,0.699,0.975,0.678,1.208,0.868,0.403,0.703,0.668,�k�k��,5.6,�L
2019/10/12,05:10,0.699,0.977,0.680,1.208,0.868,0.403,0.704,0.666,�k�k��,6.7,�L
2019/10/12,05:20,0.700,0.976,0.677,1.211,0.870,0.404,0.705,0.668,�k�k��,5.2,�L
2019/10/12,05:30,0.701,0.976,0.680,1.210,0.872,0.404,0.707,0.670,�k�k��,6.9,�L
2019/10/12,05:40,0.701,0.979,0.681,1.214,0.873,0.405,0.707,0.668,�k�k��,6.4,�L
2019/10/12,05:50,0.702,0.976,0.682,1.213,0.873,0.404,0.708,0.669,�k�k��,6.4,�L
2019/10/12,06:00,0.700,0.977,0.681,1.215,0.874,0.405,0.706,0.668,�k�k��,7.1,�L
2019/10/12,06:10,0.700,0.977,0.679,1.215,0.874,0.406,0.707,0.670,�k�k��,7.1,�L
2019/10/12,06:20,0.702,0.977,0.683,1.216,0.875,0.403,0.708,0.672,�k�k��,6.6,�L
2019/10/12,06:30,0.701,0.979,0.682,1.217,0.876,0.406,0.707,0.670,�k�k��,7.1,�L
2019/10/12,06:40,0.702,0.981,0.681,1.217,0.877,0.406,0.708,0.671,�k�k��,8.0,��
2019/10/12,06:50,0.701,0.980,0.683,1.218,0.878,0.405,0.708,0.671,�k�k��,6.9,��
2019/10/12,07:00,0.702,0.982,0.684,1.219,0.877,0.406,0.708,0.669,�k�k��,8.5,��
2019/10/12,07:10,0.702,0.983,0.685,1.219,0.880,0.407,0.708,0.673,�k�k��,7.8,��
2019/10/12,07:20,0.703,0.983,0.685,1.218,0.881,0.406,0.709,0.671,�k�k��,8.6,�L
2019/10/12,07:30,0.703,0.983,0.684,1.221,0.880,0.405,0.709,0.674,�k�k��,6.9,�L
2019/10/12,07:40,0.706,0.984,0.685,1.220,0.881,0.405,0.710,0.672,�k�k��,7.4,�L
2019/10/12,07:50,0.704,0.984,0.684,1.219,0.882,0.407,0.709,0.672,�k�k��,8.2,�L
2019/10/12,08:00,0.703,0.984,0.685,1.220,0.881,0.404,0.708,0.672,�k�k��,8.5,�L
2019/10/12,08:10,0.704,0.985,0.685,1.221,0.879,0.405,0.708,0.674,�k�k��,8.5,�L
2019/10/12,08:20,0.703,0.984,0.684,1.220,0.879,0.406,0.709,0.673,�k�k��,7.4,�L
2019/10/12,08:30,0.702,0.983,0.684,1.224,0.880,0.405,0.709,0.672,�k�k��,8.2,�L
2019/10/12,08:40,0.702,0.983,0.685,1.221,0.881,0.406,0.709,0.673,�k,8.0,�L
2019/10/12,08:50,0.702,0.981,0.684,1.221,0.880,0.406,0.707,0.671,�k�k��,8.5,�L
2019/10/12,09:00,0.701,0.980,0.682,1.220,0.878,0.405,0.709,0.670,�k�k��,8.2,�L
2019/10/12,09:10,0.703,0.981,0.683,1.221,0.880,0.406,0.708,0.672,�k,9.1,�L
2019/10/12,09:20,0.703,0.979,0.682,1.221,0.877,0.405,0.709,0.672,�k�k��,8.2,�L
2019/10/12,09:30,0.702,0.981,0.682,1.220,0.877,0.404,0.711,0.673,�k�k��,8.0,�L
2019/10/12,09:40,0.701,0.983,0.681,1.217,0.878,0.404,0.711,0.672,�k,8.2,�L
2019/10/12,09:50,0.701,0.977,0.680,1.216,0.876,0.407,0.708,0.670,�k,8.5,�L
2019/10/12,10:00,0.701,0.975,0.681,1.216,0.875,0.404,0.709,0.673,�k,7.5,�L
2019/10/12,10:10,0.701,0.979,0.681,1.216,0.875,0.407,0.710,0.672,�k,7.7,�L
2019/10/12,10:20,0.700,0.977,0.678,1.213,0.871,0.405,0.707,0.670,�k,6.3,�L
2019/10/12,10:30,0.699,0.977,0.680,1.211,0.874,0.404,0.707,0.672,�k�k��,9.7,�L
2019/10/12,10:40,0.699,0.976,0.678,1.210,0.870,0.403,0.706,0.670,�k��,12.1,�L
2019/10/12,10:50,0.698,0.972,0.677,1.203,0.866,0.402,0.704,0.668,�k�k��,10.4,�L
2019/10/12,11:00,0.684,0.947,0.665,1.178,0.846,0.397,0.693,0.659,-,CALM,�L
2019/10/12,11:10,0.677,0.936,0.660,1.169,0.838,0.394,0.691,0.656,-,CALM,�L
2019/10/12,11:20,0.677,0.939,0.659,1.164,0.836,0.391,0.691,0.656,�k��,8.5,�L
2019/10/12,11:30,0.681,0.941,0.662,1.169,0.836,0.395,0.694,0.657,�k��,13.7,�L
2019/10/12,11:40,0.685,0.946,0.665,1.173,0.837,0.398,0.696,0.662,�k��,13.7,�L
2019/10/12,11:50,0.687,0.952,0.668,1.180,0.845,0.402,0.696,0.662,�k��,12.4,�L
2019/10/12,12:00,0.692,0.959,0.671,1.186,0.846,0.402,0.699,0.665,�k��,12.6,�L
2019/10/12,12:10,0.696,0.963,0.672,1.189,0.849,0.402,0.699,0.666,�k��,11.6,�L
2019/10/12,12:20,0.695,0.965,0.673,1.193,0.850,0.404,0.703,0.666,�k��,11.6,�L
2019/10/12,12:30,0.699,0.968,0.675,1.196,0.854,0.404,0.704,0.667,�k��,8.0,�L
2019/10/12,12:40,0.694,0.961,0.669,1.185,0.845,0.402,0.700,0.665,���k��,4.0,�L
2019/10/12,12:50,0.684,0.947,0.664,1.170,0.839,0.400,0.700,0.666,�k�k��,5.5,�L
2019/10/12,13:00,0.692,0.955,0.665,1.179,0.845,0.403,0.701,0.664,�k�k��,7.2,�L
2019/10/12,13:10,0.692,0.956,0.670,1.184,0.845,0.402,0.699,0.665,�k�k��,8.3,�L
2019/10/12,13:20,0.690,0.959,0.670,1.190,0.848,0.403,0.702,0.667,�k,8.8,�L
2019/10/12,13:30,0.691,0.953,0.667,1.187,0.844,0.401,0.701,0.666,�k�k��,6.0,�L
2019/10/12,13:40,0.689,0.949,0.668,1.185,0.844,0.400,0.700,0.665,�k�k��,7.2,�L
2019/10/12,13:50,0.691,0.953,0.668,1.184,0.841,0.400,0.699,0.664,�k�k��,8.8,�L
2019/10/12,14:00,0.689,0.948,0.665,1.180,0.834,0.400,0.698,0.663,�k�k��,8.0,�L
2019/10/12,14:10,0.691,0.954,0.670,1.184,0.838,0.400,0.699,0.666,�k��,7.5,�L
2019/10/12,14:20,0.693,0.961,0.672,1.190,0.839,0.402,0.700,0.666,�k��,10.5,�L
2019/10/12,14:30,0.693,0.963,0.672,1.194,0.843,0.401,0.701,0.666,�k��,13.4,�L
2019/10/12,14:40,0.694,0.966,0.674,1.198,0.844,0.403,0.700,0.667,�k��,13.8,�L
2019/10/12,14:50,0.700,0.970,0.673,1.197,0.849,0.403,0.704,0.668,�k��,15.9,�L
2019/10/12,15:00,0.697,0.971,0.674,1.202,0.847,0.404,0.703,0.668,�k��,16.3,�L
2019/10/12,15:10,0.699,0.971,0.675,1.202,0.850,0.405,0.705,0.667,-,CALM,�L
2019/10/12,15:20,0.698,0.969,0.673,1.199,0.845,0.403,0.702,0.667,-,CALM,�L
2019/10/12,15:30,0.692,0.964,0.672,1.194,0.843,0.402,0.701,0.668,-,CALM,�L
2019/10/12,15:40,0.693,0.965,0.673,1.196,0.847,0.403,0.703,0.667,-,CALM,�L
2019/10/12,15:50,0.694,0.967,0.671,1.198,0.847,0.403,0.701,0.667,-,CALM,�L
2019/10/12,16:00,0.691,0.956,0.668,1.186,0.838,0.401,0.700,0.665,-,CALM,�L
2019/10/12,16:10,0.683,0.946,0.664,1.175,0.827,0.398,0.693,0.660,-,CALM,�L
2019/10/12,16:20,0.676,0.937,0.660,1.170,0.824,0.398,0.691,0.658,-,CALM,�L
2019/10/12,16:30,0.677,0.937,0.658,1.164,0.817,0.397,0.688,0.657,-,CALM,�L
2019/10/12,16:40,0.672,0.933,0.650,1.156,0.814,0.393,0.686,0.653,-,CALM,�L
2019/10/12,16:50,0.660,0.919,0.636,1.139,0.797,0.382,0.682,0.646,-,CALM,�L
2019/10/12,17:00,0.656,0.920,0.612,1.134,0.787,0.359,0.681,0.645,-,CALM,�L
2019/10/12,17:10,0.658,0.916,0.605,1.128,0.779,0.358,0.678,0.644,-,CALM,�L
2019/10/12,17:20,0.649,0.904,0.582,1.116,0.761,0.323,0.675,0.638,-,CALM,�L
2019/10/12,17:30,0.647,0.902,0.551,1.110,0.747,0.310,0.671,0.641,-,CALM,�L
2019/10/12,17:40,0.655,0.906,0.542,1.124,0.747,0.317,0.674,0.644,-,CALM,�L
2019/10/12,17:50,0.663,0.911,0.549,1.130,0.748,0.338,0.676,0.648,-,CALM,�L
2019/10/12,18:00,0.667,0.914,0.560,1.134,0.752,0.369,0.678,0.651,-,CALM,�L
2019/10/12,18:10,0.666,0.914,0.570,1.134,0.753,0.383,0.678,0.649,-,CALM,�L
2019/10/12,18:20,0.660,0.904,0.569,1.123,0.751,0.378,0.674,0.647,-,CALM,�L
2019/10/12,18:30,0.663,0.906,0.562,1.120,0.750,0.369,0.671,0.645,-,CALM,�L
2019/10/12,18:40,0.653,0.899,0.550,1.113,0.744,0.347,0.670,0.644,-,CALM,�L
2019/10/12,18:50,0.661,0.904,0.547,1.113,0.745,0.351,0.671,0.644,-,CALM,�L
2019/10/12,19:00,0.659,0.904,0.547,1.107,0.741,0.351,0.669,0.644,-,CALM,�L
2019/10/12,19:10,0.666,0.907,0.552,1.112,0.743,0.361,0.671,0.645,���k��,13.6,�L
2019/10/12,19:20,0.657,0.897,0.546,1.100,0.736,0.354,0.668,0.642,-,CALM,�L
2019/10/12,19:30,0.664,0.907,0.543,1.104,0.740,0.351,0.670,0.644,-,CALM,�L
2019/10/12,19:40,0.668,0.907,0.547,1.106,0.742,0.366,0.668,0.643,-,CALM,�L
2019/10/12,19:50,0.665,0.904,0.547,1.100,0.739,0.362,0.668,0.644,-,CALM,�L
2019/10/12,20:00,0.666,0.908,0.547,1.106,0.740,0.368,0.671,0.644,-,CALM,�L
2019/10/12,20:10,0.673,0.915,0.557,1.114,0.746,0.379,0.672,0.647,-,CALM,�L
2019/10/12,20:20,0.673,0.910,0.558,1.111,0.746,0.382,0.671,0.646,-,CALM,�L
2019/10/12,20:30,0.671,0.914,0.561,1.111,0.747,0.384,0.675,0.647,-,CALM,�L
2019/10/12,20:40,0.673,0.912,0.562,1.112,0.745,0.384,0.673,0.647,-,CALM,�L
2019/10/12,20:50,0.664,0.905,0.554,1.102,0.739,0.370,0.669,0.646,-,CALM,�L
2019/10/12,21:00,0.667,0.906,0.552,1.103,0.740,0.368,0.668,0.644,-,CALM,�L
2019/10/12,21:10,0.661,0.896,0.545,1.095,0.734,0.367,0.669,0.642,-,CALM,�L
2019/10/12,21:20,0.657,0.890,0.533,1.087,0.726,0.346,0.664,0.639,-,CALM,�L
2019/10/12,21:30,0.661,0.893,0.526,1.077,0.713,0.315,0.661,0.637,-,CALM,�L
2019/10/12,21:40,0.666,0.899,0.534,1.091,0.718,0.322,0.666,0.642,���쓌,14.4,�L
2019/10/12,21:50,0.672,0.905,0.541,1.102,0.723,0.338,0.669,0.643,-,CALM,�L
2019/10/12,22:00,0.674,0.907,0.551,1.106,0.730,0.358,0.669,0.646,-,CALM,�L
2019/10/12,22:10,0.666,0.896,0.548,1.092,0.720,0.344,0.665,0.639,-,CALM,�L
2019/10/12,22:20,0.646,0.880,0.523,1.067,0.705,0.311,0.656,0.632,-,CALM,�L
2019/10/12,22:30,0.659,0.889,0.518,1.070,0.703,0.290,0.659,0.635,-,CALM,�L
2019/10/12,22:40,0.660,0.888,0.523,1.074,0.700,0.285,0.658,0.635,-,CALM,�L
2019/10/12,22:50,0.658,0.895,0.524,1.080,0.706,0.288,0.660,0.639,-,CALM,�L
2019/10/12,23:00,0.669,0.899,0.530,1.090,0.710,0.298,0.659,0.641,���쓌,14.0,�L
2019/10/12,23:10,0.667,0.900,0.534,1.096,0.716,0.311,0.663,0.643,-,CALM,�L
2019/10/12,23:20,0.672,0.901,0.534,1.099,0.717,0.326,0.664,0.643,-,CALM,�L
2019/10/12,23:30,0.671,0.902,0.537,1.101,0.717,0.338,0.663,0.645,-,CALM,�L
2019/10/12,23:40,0.671,0.906,0.538,1.101,0.719,0.349,0.663,0.647,-,CALM,�L
2019/10/12,23:50,0.676,0.905,0.539,1.105,0.723,0.364,0.666,0.647,-,CALM,�L
